VRG238 SCEL-SBGL

Flight info

Callsign VRG238
Flight time N/A
Altitude 23000
Route NEBEG7C NEBEG A307 ESITO/N0474F390 UT652 SIKOB UM400 KOLBI
Aircraft B772/H-SDE2E3FGHIJ5LORVWXY/LB1D1

Departure

Time 2026-04-30 21:53
Airport Comodoro Arturo Merino Benítez International Airport (SCEL)

Arrival

Time N/A
Airport Rio Galeão – Tom Jobim International Airport (SBGL)
Time Latitude Longitude Altitude Speed Heading
2026-04-30 21:34 -33.39600 -70.79805 1580 ft 0 kts 176°
2026-04-30 21:42 -33.39595 -70.79806 1581 ft 4 kts 177°
2026-04-30 21:42 -33.39568 -70.79805 1582 ft 4 kts 190°
2026-04-30 21:42 -33.39543 -70.79796 1580 ft 4 kts 214°
2026-04-30 21:42 -33.39526 -70.79774 1580 ft 4 kts 258°
2026-04-30 21:43 -33.39525 -70.79766 1580 ft 0 kts 268°
2026-04-30 21:48 -33.39526 -70.79791 1580 ft 6 kts 268°
2026-04-30 21:48 -33.39528 -70.79843 1582 ft 6 kts 267°
2026-04-30 21:48 -33.39527 -70.79905 1582 ft 9 kts 284°
2026-04-30 21:49 -33.39457 -70.79942 1581 ft 17 kts 353°
2026-04-30 21:49 -33.39299 -70.79953 1581 ft 26 kts 355°
2026-04-30 21:49 -33.39116 -70.79967 1581 ft 26 kts 355°
2026-04-30 21:49 -33.38932 -70.79978 1581 ft 26 kts 359°
2026-04-30 21:50 -33.38749 -70.79984 1581 ft 26 kts 356°
2026-04-30 21:50 -33.38566 -70.79997 1581 ft 26 kts 356°
2026-04-30 21:50 -33.38382 -70.80005 1581 ft 26 kts
2026-04-30 21:50 -33.38199 -70.80011 1581 ft 26 kts 358°
2026-04-30 21:51 -33.38096 -70.80076 1582 ft 18 kts 298°
2026-04-30 21:51 -33.38003 -70.80127 1583 ft 19 kts 356°
2026-04-30 21:51 -33.37822 -70.80139 1583 ft 32 kts 356°
2026-04-30 21:51 -33.37563 -70.80153 1583 ft 40 kts 357°
2026-04-30 21:52 -33.37295 -70.80168 1584 ft 37 kts 357°
2026-04-30 21:52 -33.37117 -70.80237 1587 ft 27 kts 298°
2026-04-30 21:52 -33.37218 -70.80375 1590 ft 27 kts 180°
2026-04-30 21:52 -33.37445 -70.80361 1591 ft 44 kts 177°
2026-04-30 21:53 -33.37957 -70.80336 1588 ft 110 kts 177°
2026-04-30 21:53 -33.38947 -70.80303 1604 ft 171 kts 181°
2026-04-30 21:53 -33.40164 -70.80257 2141 ft 186 kts 179°
2026-04-30 21:53 -33.41476 -70.80111 3001 ft 190 kts 172°
2026-04-30 21:54 -33.42741 -70.79805 3927 ft 184 kts 168°
2026-04-30 21:54 -33.43603 -70.79630 4238 ft 196 kts 172°
2026-04-30 21:54 -33.45006 -70.79390 4667 ft 210 kts 170°
2026-04-30 21:54 -33.46474 -70.79127 5187 ft 217 kts 170°
2026-04-30 21:55 -33.48014 -70.78786 5554 ft 231 kts 165°
2026-04-30 21:55 -33.49612 -70.78397 6011 ft 240 kts 172°
2026-04-30 21:55 -33.51353 -70.78248 6277 ft 260 kts 179°
2026-04-30 21:55 -33.53191 -70.78186 6750 ft 270 kts 178°
2026-04-30 21:56 -33.55088 -70.78076 7394 ft 272 kts 176°
2026-04-30 21:56 -33.56993 -70.77921 8175 ft 279 kts 176°
2026-04-30 21:56 -33.59009 -70.77703 8586 ft 302 kts 175°
2026-04-30 21:56 -33.61115 -70.77403 9313 ft 306 kts 172°
2026-04-30 21:57 -33.63929 -70.76906 10506 ft 309 kts 173°
2026-04-30 21:57 -33.65350 -70.76684 10905 ft 317 kts 174°
2026-04-30 21:57 -33.67628 -70.76322 11167 ft 342 kts 173°
2026-04-30 21:57 -33.70044 -70.75881 11532 ft 361 kts 172°
2026-04-30 21:58 -33.72592 -70.75369 11878 ft 381 kts 171°
2026-04-30 21:58 -33.75228 -70.74794 12654 ft 382 kts 171°
2026-04-30 21:58 -33.77804 -70.74135 13767 ft 379 kts 165°
2026-04-30 21:58 -33.80269 -70.72831 14195 ft 399 kts 145°
2026-04-30 21:59 -33.82204 -70.70379 14634 ft 411 kts 120°
2026-04-30 21:59 -33.83182 -70.67257 15591 ft 401 kts 95°
2026-04-30 21:59 -33.83224 -70.63967 16375 ft 395 kts 82°
2026-04-30 22:00 -33.82510 -70.57337 17547 ft 410 kts 76°
2026-04-30 22:00 -33.81886 -70.50355 18739 ft 428 kts 84°
2026-04-30 22:00 -33.81780 -70.46766 19384 ft 433 kts 85°
2026-04-30 22:01 -33.81695 -70.43133 19956 ft 439 kts 84°
2026-04-30 22:01 -33.81598 -70.39454 20537 ft 443 kts 85°
2026-04-30 22:01 -33.81487 -70.35731 21182 ft 447 kts 85°
2026-04-30 22:01 -33.81373 -70.32026 21763 ft 452 kts 85°
2026-04-30 22:02 -33.81255 -70.28231 22261 ft 457 kts 85°
2026-04-30 22:02 -33.81131 -70.24387 22823 ft 462 kts 85°
2026-04-30 22:02 -33.81007 -70.20502 23221 ft 469 kts 85°
2026-04-30 22:02 -33.80875 -70.16548 23627 ft 478 kts 85°
2026-04-30 22:03 -33.80742 -70.12543 24078 ft 482 kts 85°
2026-04-30 22:03 -33.80609 -70.08506 24662 ft 483 kts 85°
2026-04-30 22:03 -33.80475 -70.04476 25246 ft 484 kts 85°
2026-04-30 22:03 -33.80342 -70.00418 25785 ft 486 kts 86°
2026-04-30 22:04 -33.80209 -69.96339 26291 ft 490 kts 86°
2026-04-30 22:04 -33.80071 -69.92230 26773 ft 494 kts 86°
2026-04-30 22:04 -33.80263 -69.83928 27634 ft 500 kts 95°
2026-04-30 22:05 -33.80713 -69.79799 28303 ft 499 kts 97°
2026-04-30 22:05 -33.81223 -69.75682 29050 ft 496 kts 98°
2026-04-30 22:05 -33.81722 -69.71584 29595 ft 498 kts 97°
2026-04-30 22:05 -33.82196 -69.67435 29967 ft 503 kts 97°
2026-04-30 22:06 -33.82640 -69.63249 30232 ft 507 kts 96°
2026-04-30 22:06 -33.83470 -69.54839 31014 ft 511 kts 96°
2026-04-30 22:06 -33.83877 -69.50600 31415 ft 510 kts 96°
2026-04-30 22:07 -33.84283 -69.46359 31808 ft 511 kts 95°
2026-04-30 22:07 -33.84689 -69.42108 32130 ft 513 kts 95°
2026-04-30 22:07 -33.85097 -69.37835 32322 ft 516 kts 95°
2026-04-30 22:07 -33.85508 -69.33526 32547 ft 519 kts 95°
2026-04-30 22:08 -33.85920 -69.29208 32866 ft 521 kts 95°
2026-04-30 22:08 -33.86334 -69.24881 33129 ft 521 kts 95°
2026-04-30 22:08 -33.86747 -69.20539 33378 ft 523 kts 95°
2026-04-30 22:08 -33.87154 -69.16239 33530 ft 527 kts 95°
2026-04-30 22:09 -33.87982 -69.07426 34012 ft 528 kts 95°
2026-04-30 22:09 -33.88152 -69.03041 34423 ft 523 kts 85°
2026-04-30 22:09 -33.87732 -68.98720 34808 ft 517 kts 76°
2026-04-30 22:10 -33.86858 -68.94547 35170 ft 513 kts 69°
2026-04-30 22:10 -33.85572 -68.90570 35484 ft 509 kts 62°
2026-04-30 22:10 -33.83376 -68.84728 35906 ft 510 kts 62°
2026-04-30 22:10 -33.77611 -68.69082 37002 ft 511 kts 62°
2026-04-30 22:11 -33.66227 -68.37863 38787 ft 514 kts 61°
2026-04-30 22:11 -33.57829 -68.15048 38857 ft 528 kts 62°
2026-04-30 22:11 -33.45780 -67.82544 38863 ft 539 kts 61°
2026-04-30 22:12 -33.33492 -67.49731 38728 ft 537 kts 61°
2026-04-30 22:12 -33.09335 -66.86149 38673 ft 516 kts 60°
2026-04-30 22:13 -32.89437 -66.38263 38835 ft 515 kts 58°
2026-04-30 22:13 -32.78895 -66.13208 38978 ft 531 kts 58°
2026-04-30 22:13 -32.77244 -66.09306 38908 ft 524 kts 58°
2026-04-30 22:14 -32.73979 -66.01751 38840 ft 516 kts 57°
2026-04-30 22:14 -32.70665 -65.94191 38838 ft 516 kts 57°
2026-04-30 22:15 -32.67361 -65.86637 38835 ft 516 kts 57°
2026-04-30 22:15 -32.64065 -65.79052 38841 ft 517 kts 57°
2026-04-30 22:16 -32.60765 -65.71484 38851 ft 518 kts 57°
2026-04-30 22:17 -32.54122 -65.56359 38831 ft 519 kts 57°
2026-04-30 22:17 -32.49104 -65.44966 38834 ft 520 kts 57°
2026-04-30 22:18 -32.44077 -65.33588 38826 ft 519 kts 57°
2026-04-30 22:19 -32.39074 -65.22296 38839 ft 519 kts 56°
2026-04-30 22:20 -32.34103 -65.10924 38843 ft 520 kts 57°
2026-04-30 22:20 -32.29236 -64.99460 38853 ft 520 kts 57°
2026-04-30 22:21 -32.25978 -64.91834 38840 ft 520 kts 57°
2026-04-30 22:21 -32.22724 -64.84257 38852 ft 520 kts 57°
2026-04-30 22:22 -32.19448 -64.76652 38844 ft 520 kts 57°
2026-04-30 22:22 -32.16172 -64.69062 38839 ft 519 kts 57°
2026-04-30 22:23 -32.12894 -64.61480 38853 ft 518 kts 57°
2026-04-30 22:23 -32.09615 -64.53912 38854 ft 518 kts 57°
2026-04-30 22:24 -32.06348 -64.46387 38843 ft 518 kts 57°
2026-04-30 22:24 -32.03061 -64.38833 38839 ft 519 kts 57°
2026-04-30 22:25 -31.99767 -64.31276 38827 ft 519 kts 57°
2026-04-30 22:25 -31.96465 -64.23718 38835 ft 519 kts 57°
2026-04-30 22:26 -31.91504 -64.12394 38846 ft 519 kts 57°
2026-04-30 22:27 -31.88206 -64.04883 38833 ft 520 kts 57°
2026-04-30 22:27 -31.83219 -63.93555 38862 ft 520 kts 57°
2026-04-30 22:28 -31.78214 -63.82216 38852 ft 521 kts 56°
2026-04-30 22:29 -31.71323 -63.67340 38861 ft 520 kts 54°
2026-04-30 22:31 -31.59050 -63.41311 38858 ft 521 kts 55°
2026-04-30 22:32 -31.50291 -63.22790 38850 ft 520 kts 54°
2026-04-30 22:33 -31.41660 -63.04167 38864 ft 521 kts 56°